| time (UTC) | temp F | wind direction | speed MPH | gust MPH | rain 1hr in | rain 24hr in | rain mn in | humidity % | barometer mb |
| 20260504081654 | 41 | 177 | 0.0 | 0.0 | 0.00 | 0.00 | 0.00 | 78 | 998.3 |
| 20260504081152 | 41 | 96 | 0.0 | 0.0 | 0.00 | 0.00 | 0.00 | 78 | 998.3 |
| 20260504080652 | 41 | 101 | 0.0 | 0.0 | 0.00 | 0.00 | 0.00 | 77 | 998.3 |
| 20260504080152 | 42 | 112 | 0.0 | 0.0 | 0.00 | 0.00 | 0.00 | 77 | 998.2 |
| 20260504070324 | 42 | 112 | 3.0 | 2.0 | 0.00 | 0.00 | 0.00 | 71 | 998.3 |
| 20260504060225 | 43 | 90 | 0.0 | 0.0 | 0.00 | 0.00 | 0.00 | 65 | 998.7 |
| 20260504050453 | 42 | 103 | 0.0 | 0.0 | 0.00 | 0.00 | 0.00 | 62 | 999.0 |
| 20260504045923 | 42 | 117 | 0.0 | 0.0 | 0.00 | 0.00 | 0.00 | 63 | 999.0 |
| 20260504045423 | 42 | 104 | 0.0 | 0.0 | 0.00 | 0.00 | 0.00 | 61 | 999.0 |
| 20260504044853 | 42 | 112 | 0.0 | 0.0 | 0.00 | 0.00 | 0.00 | 61 | 999.0 |
| 20260504044352 | 41 | 118 | 0.0 | 0.0 | 0.00 | 0.00 | 0.00 | 61 | 999.0 |
| 20260504043822 | 41 | 112 | 0.0 | 0.0 | 0.00 | 0.00 | 0.00 | 61 | 999.2 |
| 20260504043322 | 41 | 95 | 0.0 | 0.0 | 0.00 | 0.00 | 0.00 | 62 | 999.2 |
| 20260504042252 | 41 | 153 | 0.0 | 0.0 | 0.00 | 0.00 | 0.00 | 61 | 999.1 |
| 20260504041723 | 42 | 111 | 0.0 | 0.0 | 0.00 | 0.00 | 0.00 | 61 | 999.1 |
| 20260504041226 | 42 | 72 | 0.0 | 0.0 | 0.00 | 0.00 | 0.00 | 61 | 999.1 |
| 20260504040653 | 42 | 100 | 0.0 | 0.0 | 0.00 | 0.00 | 0.00 | 61 | 999.1 |
| 20260504040153 | 42 | 112 | 0.0 | 0.0 | 0.00 | 0.00 | 0.00 | 61 | 999.0 |
| 20260504035653 | 42 | 64 | 0.0 | 0.0 | 0.00 | 0.00 | 0.00 | 61 | 999.0 |
| 20260504035153 | 42 | 102 | 0.0 | 0.0 | 0.00 | 0.00 | 0.00 | 61 | 999.2 |
| 20260504034622 | 42 | 88 | 0.0 | 0.0 | 0.00 | 0.00 | 0.00 | 62 | 999.2 |
| 20260504034122 | 42 | 104 | 0.0 | 0.0 | 0.00 | 0.00 | 0.00 | 64 | 999.2 |
| 20260504033622 | 42 | 87 | 0.0 | 0.0 | 0.00 | 0.00 | 0.00 | 64 | 999.2 |
| 20260504033121 | 42 | 68 | 0.0 | 0.0 | 0.00 | 0.00 | 0.00 | 62 | 999.2 |
| 20260504032553 | 43 | 90 | 0.0 | 0.0 | 0.00 | 0.00 | 0.00 | 60 | 999.3 |
| 20260504032021 | 43 | 92 | 0.0 | 0.0 | 0.00 | 0.00 | 0.00 | 60 | 999.3 |
| 20260504031522 | 44 | 90 | 0.0 | 0.0 | 0.00 | 0.00 | 0.00 | 59 | 999.4 |
| 20260504031024 | 44 | 105 | 0.0 | 0.0 | 0.00 | 0.00 | 0.00 | 59 | 999.4 |
| 20260504030453 | 44 | 107 | 0.0 | 0.0 | 0.00 | 0.00 | 0.00 | 59 | 999.5 |
| 20260504025922 | 44 | 111 | 0.0 | 0.0 | 0.00 | 0.00 | 0.00 | 58 | 999.5 |
| 20260504025423 | 45 | 130 | 0.0 | 0.0 | 0.00 | 0.00 | 0.00 | 58 | 999.5 |
| 20260504024852 | 45 | 122 | 0.0 | 0.0 | 0.00 | 0.00 | 0.00 | 57 | 999.5 |
| 20260504024352 | 45 | 207 | 1.0 | 0.0 | 0.00 | 0.00 | 0.00 | 56 | 999.5 |
| 20260504023821 | 45 | 129 | 3.0 | 5.0 | 0.00 | 0.00 | 0.00 | 57 | 999.5 |
| 20260504023323 | 46 | 104 | 0.0 | 0.0 | 0.00 | 0.00 | 0.00 | 57 | 999.5 |
| 20260504022821 | 46 | 131 | 2.0 | 2.0 | 0.00 | 0.00 | 0.00 | 55 | 999.6 |
| 20260504022322 | 46 | 164 | 0.0 | 0.0 | 0.00 | 0.00 | 0.00 | 56 | 999.6 |
| 20260504021754 | 47 | 209 | 3.0 | 3.0 | 0.00 | 0.00 | 0.00 | 54 | 999.6 |
| 20260504021222 | 47 | 152 | 3.0 | 2.0 | 0.00 | 0.00 | 0.00 | 54 | 999.8 |
| 20260504020655 | 47 | 234 | 1.0 | 7.0 | 0.00 | 0.00 | 0.00 | 54 | 999.8 |
| 20260504020151 | 47 | 155 | 2.0 | 2.0 | 0.00 | 0.00 | 0.00 | 54 | 999.8 |
| 20260504015651 | 47 | 150 | 1.0 | 2.0 | 0.00 | 0.00 | 0.00 | 54 | 999.8 |
| 20260504015122 | 48 | 149 | 0.0 | 2.0 | 0.00 | 0.00 | 0.00 | 52 | 999.8 |
| 20260504014554 | 48 | 180 | 0.0 | 0.0 | 0.00 | 0.00 | 0.00 | 52 | 999.8 |
| 20260504014053 | 49 | 208 | 1.0 | 0.0 | 0.00 | 0.00 | 0.00 | 51 | 999.8 |
| 20260504013553 | 49 | 173 | 3.0 | 5.0 | 0.00 | 0.00 | 0.00 | 51 | 999.8 |
| 20260504013051 | 49 | 170 | 0.0 | 0.0 | 0.00 | 0.00 | 0.00 | 51 | 999.8 |
| 20260504012524 | 49 | 158 | 0.0 | 0.0 | 0.00 | 0.00 | 0.00 | 49 | 999.9 |
| 20260504011954 | 50 | 168 | 3.0 | 2.0 | 0.00 | 0.00 | 0.00 | 48 | 999.9 |
| 20260504010951 | 50 | 234 | 6.0 | 6.0 | 0.00 | 0.00 | 0.00 | 48 | 999.8 |
| 20260504010452 | 50 | 215 | 3.0 | 5.0 | 0.00 | 0.00 | 0.00 | 48 | 999.7 |
| 20260504005951 | 51 | 196 | 1.0 | 3.0 | 0.00 | 0.00 | 0.00 | 47 | 999.7 |
| 20260504005422 | 51 | 167 | 0.0 | 2.0 | 0.00 | 0.00 | 0.00 | 47 | 999.7 |
| 20260504004927 | 51 | 201 | 5.0 | 5.0 | 0.00 | 0.00 | 0.00 | 45 | 999.6 |
| 20260504004424 | 51 | 210 | 7.0 | 5.0 | 0.00 | 0.00 | 0.00 | 45 | 999.6 |
| 20260504003854 | 51 | 191 | 3.0 | 2.0 | 0.00 | 0.00 | 0.00 | 45 | 999.6 |
| 20260504003321 | 51 | 288 | 7.0 | 5.0 | 0.00 | 0.00 | 0.00 | 44 | 999.6 |
| 20260504002825 | 51 | 225 | 10.0 | 7.0 | 0.00 | 0.00 | 0.00 | 43 | 999.4 |
| 20260504002322 | 51 | 222 | 12.0 | 9.0 | 0.00 | 0.00 | 0.00 | 43 | 999.4 |
| 20260504001753 | 51 | 161 | 8.0 | 13.0 | 0.00 | 0.00 | 0.00 | 43 | 999.4 |
| 20260504001255 | 51 | 245 | 5.0 | 3.0 | 0.00 | 0.00 | 0.00 | 41 | 999.3 |
| 20260504000721 | 52 | 224 | 3.0 | 2.0 | 0.00 | 0.00 | 0.00 | 41 | 999.3 |
| 20260504000151 | 52 | 311 | 7.0 | 5.0 | 0.00 | 0.00 | 0.00 | 40 | 999.4 |
| 20260503235621 | 52 | 244 | 9.0 | 8.0 | 0.00 | 0.00 | 0.00 | 40 | 999.4 |
| 20260503235052 | 53 | 140 | 2.0 | 2.0 | 0.00 | 0.00 | 0.00 | 39 | 999.3 |
| 20260503234023 | 54 | 243 | 14.0 | 10.0 | 0.00 | 0.00 | 0.00 | 38 | 999.2 |
| 20260503233522 | 54 | 233 | 13.0 | 10.0 | 0.00 | 0.00 | 0.00 | 37 | 999.2 |
| 20260503232951 | 55 | 237 | 13.0 | 10.0 | 0.00 | 0.00 | 0.00 | 37 | 999.2 |
| 20260503232451 | 55 | 270 | 6.0 | 2.0 | 0.00 | 0.00 | 0.00 | 38 | 999.2 |
| 20260503231922 | 55 | 313 | 6.0 | 8.0 | 0.00 | 0.00 | 0.00 | 38 | 999.2 |
| 20260503231352 | 55 | 191 | 13.0 | 9.0 | 0.00 | 0.00 | 0.00 | 37 | 999.2 |
| 20260503230854 | 55 | 234 | 12.0 | 13.0 | 0.00 | 0.00 | 0.00 | 37 | 999.2 |
| 20260503230351 | 55 | 214 | 5.0 | 8.0 | 0.00 | 0.00 | 0.00 | 37 | 999.2 |
| 20260503225854 | 55 | 236 | 9.0 | 8.0 | 0.00 | 0.00 | 0.00 | 37 | 999.2 |
| 20260503225324 | 55 | 236 | 12.0 | 10.0 | 0.00 | 0.00 | 0.00 | 36 | 999.2 |
| 20260503224753 | 55 | 250 | 12.0 | 8.0 | 0.00 | 0.00 | 0.00 | 36 | 999.2 |
| 20260503224251 | 55 | 249 | 10.0 | 10.0 | 0.00 | 0.00 | 0.00 | 36 | 999.2 |
| 20260503223753 | 56 | 199 | 13.0 | 7.0 | 0.00 | 0.00 | 0.00 | 35 | 999.2 |
| 20260503223253 | 56 | 188 | 15.0 | 12.0 | 0.00 | 0.00 | 0.00 | 35 | 999.2 |
| 20260503222752 | 56 | 269 | 13.0 | 9.0 | 0.00 | 0.00 | 0.00 | 36 | 999.3 |
| 20260503222222 | 56 | 260 | 14.0 | 14.0 | 0.00 | 0.00 | 0.00 | 37 | 999.3 |
| 20260503221651 | 55 | 303 | 13.0 | 9.0 | 0.00 | 0.00 | 0.00 | 36 | 999.3 |
| 20260503221153 | 55 | 303 | 16.0 | 10.0 | 0.00 | 0.00 | 0.00 | 37 | 999.3 |
| 20260503220622 | 55 | 234 | 7.0 | 7.0 | 0.00 | 0.00 | 0.00 | 37 | 999.3 |
| 20260503220123 | 55 | 257 | 13.0 | 9.0 | 0.00 | 0.00 | 0.00 | 37 | 999.3 |
| 20260503215622 | 55 | 242 | 8.0 | 10.0 | 0.00 | 0.00 | 0.00 | 37 | 999.3 |
| 20260503215054 | 55 | 252 | 17.0 | 16.0 | 0.00 | 0.00 | 0.00 | 37 | 999.3 |
| 20260503214555 | 55 | 228 | 14.0 | 10.0 | 0.00 | 0.00 | 0.00 | 37 | 999.3 |
| 20260503214059 | 55 | 248 | 9.0 | 8.0 | 0.00 | 0.00 | 0.00 | 38 | 999.3 |
| 20260503213525 | 55 | 230 | 22.0 | 20.0 | 0.00 | 0.00 | 0.00 | 37 | 999.3 |
| 20260503213023 | 55 | 285 | 10.0 | 9.0 | 0.00 | 0.00 | 0.00 | 37 | 999.3 |
| 20260503212456 | 55 | 237 | 10.0 | 10.0 | 0.00 | 0.00 | 0.00 | 38 | 999.4 |
| 20260503211952 | 55 | 248 | 15.0 | 10.0 | 0.00 | 0.00 | 0.00 | 38 | 999.4 |
| 20260503211423 | 55 | 225 | 13.0 | 9.0 | 0.00 | 0.00 | 0.00 | 37 | 999.4 |
| 20260503210851 | 55 | 233 | 12.0 | 10.0 | 0.00 | 0.00 | 0.00 | 38 | 999.4 |
| 20260503210353 | 55 | 240 | 16.0 | 16.0 | 0.00 | 0.00 | 0.00 | 38 | 999.5 |
| 20260503205252 | 56 | 284 | 14.0 | 15.0 | 0.00 | 0.00 | 0.00 | 36 | 999.5 |
| 20260503204751 | 57 | 293 | 17.0 | 16.0 | 0.00 | 0.00 | 0.00 | 35 | 999.5 |
| 20260503204251 | 57 | 258 | 17.0 | 16.0 | 0.00 | 0.00 | 0.00 | 35 | 999.5 |
| 20260503203721 | 57 | 268 | 17.0 | 16.0 | 0.00 | 0.00 | 0.00 | 37 | 999.5 |
| 20260503203156 | 56 | 265 | 12.0 | 8.0 | 0.00 | 0.00 | 0.00 | 38 | 999.5 |
| 20260503202626 | 55 | 248 | 14.0 | 14.0 | 0.00 | 0.00 | 0.00 | 39 | 999.6 |
| 20260503201024 | 54 | 259 | 6.0 | 5.0 | 0.00 | 0.00 | 0.00 | 40 | 999.8 |
| 20260503200451 | 54 | 233 | 7.0 | 7.0 | 0.00 | 0.00 | 0.00 | 40 | 999.9 |
| 20260503195424 | 54 | 245 | 25.0 | 20.0 | 0.00 | 0.00 | 0.00 | 39 | 999.9 |
| 20260503194853 | 54 | 300 | 14.0 | 10.0 | 0.00 | 0.00 | 0.00 | 39 | 1000.1 |
| 20260503194322 | 54 | 254 | 10.0 | 10.0 | 0.00 | 0.00 | 0.00 | 39 | 1000.1 |
| 20260503193829 | 54 | 255 | 20.0 | 14.0 | 0.00 | 0.00 | 0.00 | 39 | 1000.2 |
| 20260503193257 | 55 | 227 | 14.0 | 13.0 | 0.00 | 0.00 | 0.00 | 39 | 1000.2 |
| 20260503192751 | 53 | 270 | 7.0 | 5.0 | 0.00 | 0.00 | 0.00 | 42 | 1000.4 |
| 20260503192225 | 53 | 290 | 7.0 | 5.0 | 0.00 | 0.00 | 0.00 | 42 | 1000.4 |
| 20260503191724 | 53 | 261 | 12.0 | 10.0 | 0.00 | 0.00 | 0.00 | 40 | 1000.4 |
| 20260503191152 | 53 | 19 | 8.0 | 8.0 | 0.00 | 0.00 | 0.00 | 42 | 1000.6 |
| 20260503190653 | 53 | 263 | 12.0 | 7.0 | 0.00 | 0.03 | 0.00 | 42 | 1000.6 |
| 20260503190152 | 53 | 244 | 8.0 | 8.0 | 0.00 | 0.05 | 0.00 | 42 | 1000.6 |
| 20260503185653 | 54 | 9 | 5.0 | 5.0 | 0.00 | 0.08 | 0.00 | 43 | 1000.6 |
| 20260503185123 | 53 | 25 | 9.0 | 8.0 | 0.00 | 0.12 | 0.00 | 43 | 1000.7 |
| 20260503184623 | 54 | 322 | 12.0 | 9.0 | 0.00 | 0.14 | 0.00 | 42 | 1000.7 |
| 20260503184124 | 55 | 272 | 13.0 | 10.0 | 0.00 | 0.14 | 0.00 | 41 | 1000.7 |
| 20260503183620 | 52 | 279 | 10.0 | 9.0 | 0.00 | 0.14 | 0.00 | 42 | 1001.0 |
| 20260503183122 | 52 | 259 | 9.0 | 8.0 | 0.00 | 0.14 | 0.00 | 45 | 1001.0 |
| 20260503182624 | 51 | 298 | 13.0 | 14.0 | 0.00 | 0.14 | 0.00 | 46 | 1001.1 |
| 20260503182122 | 52 | 237 | 15.0 | 13.0 | 0.00 | 0.14 | 0.00 | 45 | 1001.1 |
| 20260503181621 | 52 | 314 | 16.0 | 13.0 | 0.00 | 0.14 | 0.00 | 43 | 1001.2 |
| 20260503181051 | 52 | 202 | 14.0 | 9.0 | 0.00 | 0.14 | 0.00 | 45 | 1001.2 |
| 20260503180521 | 52 | 232 | 20.0 | 16.0 | 0.00 | 0.14 | 0.00 | 45 | 1001.2 |
| 20260503180022 | 52 | 285 | 10.0 | 16.0 | 0.00 | 0.14 | 0.00 | 45 | 1001.1 |
| 20260503175454 | 53 | 239 | 14.0 | 14.0 | 0.00 | 0.14 | 0.00 | 44 | 1001.1 |
| 20260503174921 | 53 | 247 | 13.0 | 7.0 | 0.00 | 0.14 | 0.00 | 42 | 1001.2 |
| 20260503174420 | 54 | 275 | 12.0 | 10.0 | 0.00 | 0.14 | 0.00 | 42 | 1001.2 |
| 20260503173925 | 53 | 259 | 18.0 | 16.0 | 0.00 | 0.14 | 0.00 | 42 | 1001.4 |
| 20260503173423 | 53 | 221 | 20.0 | 10.0 | 0.00 | 0.14 | 0.00 | 43 | 1001.4 |
| 20260503172920 | 52 | 251 | 18.0 | 20.0 | 0.00 | 0.14 | 0.00 | 46 | 1001.4 |
| 20260503172350 | 51 | 206 | 12.0 | 14.0 | 0.00 | 0.14 | 0.00 | 47 | 1001.5 |
| 20260503171850 | 51 | 276 | 12.0 | 17.0 | 0.00 | 0.14 | 0.00 | 47 | 1001.5 |
| 20260503171322 | 51 | 232 | 14.0 | 8.0 | 0.00 | 0.14 | 0.00 | 48 | 1001.7 |
| 20260503170821 | 50 | 289 | 12.0 | 10.0 | 0.00 | 0.14 | 0.00 | 47 | 1001.7 |
| 20260503170322 | 51 | 256 | 13.0 | 10.0 | 0.00 | 0.14 | 0.00 | 46 | 1001.7 |
| 20260503160150 | 51 | 295 | 7.0 | 13.0 | 0.00 | 0.14 | 0.00 | 48 | 1002.6 |
| 20260503150921 | 52 | 302 | 8.0 | 6.0 | 0.00 | 0.14 | 0.00 | 45 | 1003.1 |
| 20260503150353 | 52 | 284 | 10.0 | 10.0 | 0.00 | 0.14 | 0.00 | 45 | 1003.1 |
| 20260503130750 | 47 | 147 | 1.0 | 2.0 | 0.00 | 0.18 | 0.00 | 57 | 1003.9 |
| 20260503130224 | 46 | 87 | 5.0 | 5.0 | 0.00 | 0.19 | 0.00 | 60 | 1003.9 |
| 20260503110821 | 41 | 243 | 0.0 | 0.0 | 0.00 | 0.24 | 0.00 | 84 | 1003.9 |
| 20260503110250 | 41 | 236 | 0.0 | 0.0 | 0.00 | 0.24 | 0.00 | 83 | 1003.7 |
| 20260503090221 | 38 | 292 | 0.0 | 0.0 | 0.00 | 0.26 | 0.00 | 92 | 1003.7 |